Simultaneous Nadir Overpasses (SNOs) Predictions

Prediction of SNOs near US between AQUA and NPP Satellite Orbit:

Table of predicted SNOs near US for the next 10.0 days since TLE Epoch: 2/8/2014
Index Date (AQUA) Time (AQUA) AQUA Lat,Lon Date (NPP) Time (NPP) NPP Lat,Lon Distance(km) Time Diff (sec)
1 02/09/2014 08:33:53 26.53,-100.36 02/09/2014 08:27:21 26.53,-100.42 5.47 392
2 02/09/2014 10:10:15 35.61,-122.66 02/09/2014 10:06:14 35.70,-123.20 49.80 241
3 02/12/2014 07:19:28 49.90, -76.04 02/12/2014 07:23:30 50.29, -78.18 158.88 242
4 02/12/2014 08:58:21 49.91,-100.75 02/12/2014 09:04:57 50.46,-103.47 203.28 396
5 02/14/2014 18:17:40 49.96, -80.27 02/14/2014 18:13:49 49.70, -81.84 116.32 231
6 02/14/2014 19:56:33 49.95,-104.98 02/14/2014 19:55:17 49.58,-107.16 161.55 76
7 02/14/2014 21:30:29 32.21,-123.81 02/14/2014 21:31:39 31.71,-126.31 241.49 70
8 02/17/2014 07:46:24 20.03, -89.59 02/17/2014 07:38:37 19.96, -89.39 22.06 467
9 02/17/2014 09:22:14 31.05,-111.58 02/17/2014 09:16:57 31.08,-111.86 26.40 317




NCC Satellite Simultaneous Nadir Overpasses (SNOs) Prediction Service
